| time (UTC) | temp F | wind direction | speed MPH | gust MPH | rain 1hr in | rain 24hr in | rain mn in | humidity % | barometer mb |
| 20260502201502 | 46 | 306 | 8.0 | 17.0 | 0.00 | 0.07 | 0.00 | 47 | 1009.7 |
| 20260502200002 | 47 | 241 | 7.0 | 20.0 | 0.00 | 0.07 | 0.00 | 43 | 1009.8 |
| 20260502194600 | 47 | 213 | 6.0 | 14.0 | 0.00 | 0.07 | 0.00 | 46 | 1010.0 |
| 20260502194558 | 47 | 209 | 6.0 | 14.0 | 0.00 | 0.07 | 0.00 | 46 | 1010.0 |
| 20260502193056 | 47 | 327 | 5.0 | 13.0 | 0.00 | 0.07 | 0.00 | 46 | 1010.1 |
| 20260502191603 | 47 | 209 | 5.0 | 13.0 | 0.00 | 0.07 | 0.00 | 46 | 1010.2 |
| 20260502190053 | 46 | 269 | 3.0 | 9.0 | 0.00 | 0.07 | 0.00 | 48 | 1010.3 |
| 20260502184553 | 45 | 301 | 2.0 | 10.0 | 0.00 | 0.07 | 0.00 | 51 | 1010.4 |
| 20260502183052 | 45 | 19 | 2.0 | 10.0 | 0.00 | 0.07 | 0.00 | 52 | 1010.4 |
| 20260502181553 | 45 | 309 | 8.0 | 16.0 | 0.00 | 0.07 | 0.00 | 52 | 1010.3 |
| 20260502163049 | 45 | 355 | 7.0 | 16.0 | 0.00 | 0.07 | 0.00 | 50 | 1010.3 |
| 20260502161538 | 45 | 12 | 4.0 | 17.0 | 0.00 | 0.07 | 0.00 | 55 | 1010.3 |
| 20260502151536 | 44 | 246 | 6.0 | 13.0 | 0.00 | 0.07 | 0.07 | 56 | 1010.5 |
| 20260502123015 | 40 | 204 | 0.0 | 1.0 | 0.00 | 0.07 | 0.07 | 63 | 1010.7 |
| 20260502121514 | 39 | 82 | 0.0 | 6.0 | 0.00 | 0.07 | 0.07 | 62 | 1010.6 |
| 20260502114510 | 39 | 312 | 0.0 | 2.0 | 0.00 | 0.07 | 0.07 | 56 | 1010.6 |
| 20260502113008 | 39 | 145 | 0.0 | 2.0 | 0.00 | 0.07 | 0.07 | 54 | 1010.6 |
| 20260502111508 | 39 | 175 | 0.0 | 1.0 | 0.00 | 0.07 | 0.07 | 53 | 1010.7 |
| 20260502110004 | 38 | 216 | 0.0 | 3.0 | 0.00 | 0.07 | 0.07 | 53 | 1010.5 |
| 20260502104509 | 38 | 261 | 1.0 | 3.0 | 0.00 | 0.07 | 0.07 | 53 | 1010.3 |
| 20260502103004 | 39 | 181 | 0.0 | 4.0 | 0.00 | 0.07 | 0.07 | 51 | 1010.3 |
| 20260502101605 | 39 | 202 | 0.0 | 0.0 | 0.00 | 0.07 | 0.07 | 50 | 1010.1 |
| 20260502070042 | 39 | 302 | 0.0 | 3.0 | 0.00 | 0.07 | 0.07 | 44 | 1009.2 |
| 20260502064541 | 39 | 344 | 3.0 | 8.0 | 0.00 | 0.07 | 0.07 | 44 | 1009.2 |
| 20260502063052 | 40 | 17 | 5.0 | 10.0 | 0.00 | 0.07 | 0.07 | 43 | 1009.2 |
| 20260502061534 | 40 | 296 | 1.0 | 6.0 | 0.00 | 0.07 | 0.07 | 42 | 1009.1 |
| 20260502060031 | 42 | 337 | 8.0 | 14.0 | 0.00 | 0.07 | 0.07 | 41 | 1009.0 |
| 20260502054527 | 43 | 121 | 0.0 | 0.0 | 0.00 | 0.07 | 0.07 | 37 | 1008.8 |
| 20260502053027 | 43 | 134 | 0.0 | 0.0 | 0.00 | 0.07 | 0.07 | 39 | 1009.1 |
| 20260502051532 | 43 | 134 | 0.0 | 0.0 | 0.00 | 0.07 | 0.07 | 40 | 1009.1 |
| 20260502050027 | 43 | 134 | 0.0 | 0.0 | 0.00 | 0.07 | 0.07 | 42 | 1009.2 |
| 20260502044524 | 43 | 134 | 0.0 | 2.0 | 0.00 | 0.07 | 0.07 | 43 | 1009.1 |
| 20260502043023 | 43 | 152 | 0.0 | 2.0 | 0.01 | 0.07 | 0.07 | 44 | 1009.0 |
| 20260502041523 | 43 | 189 | 0.0 | 3.0 | 0.03 | 0.07 | 0.07 | 43 | 1009.2 |
| 20260502040023 | 43 | 176 | 0.0 | 6.0 | 0.04 | 0.07 | 0.07 | 39 | 1009.2 |
| 20260502034552 | 43 | 211 | 2.0 | 5.0 | 0.04 | 0.07 | 0.07 | 38 | 1009.3 |
| 20260502033047 | 44 | 170 | 0.0 | 2.0 | 0.03 | 0.06 | 0.06 | 38 | 1009.4 |
| 20260502031544 | 44 | 173 | 0.0 | 0.0 | 0.01 | 0.04 | 0.04 | 40 | 1009.3 |
| 20260502030048 | 44 | 169 | 0.0 | 1.0 | 0.01 | 0.03 | 0.03 | 42 | 1009.3 |
| 20260502024541 | 44 | 159 | 0.0 | 2.0 | 0.02 | 0.03 | 0.03 | 44 | 1009.4 |
| 20260502023042 | 44 | 156 | 0.0 | 2.0 | 0.02 | 0.03 | 0.03 | 46 | 1009.6 |
| 20260502021536 | 44 | 151 | 0.0 | 2.0 | 0.03 | 0.03 | 0.03 | 50 | 1009.6 |
| 20260502020039 | 44 | 134 | 0.0 | 0.0 | 0.02 | 0.02 | 0.02 | 54 | 1009.5 |
| 20260502014533 | 45 | 134 | 0.0 | 1.0 | 0.01 | 0.01 | 0.01 | 59 | 1009.6 |
| 20260502013034 | 45 | 156 | 0.0 | 1.0 | 0.01 | 0.01 | 0.01 | 66 | 1009.6 |
| 20260502011526 | 46 | 184 | 0.0 | 1.0 | 0.00 | 0.00 | 0.00 | 70 | 1009.4 |
| 20260502010025 | 46 | 236 | 0.0 | 0.0 | 0.00 | 0.00 | 0.00 | 72 | 1009.3 |
| 20260502004523 | 47 | 174 | 0.0 | 3.0 | 0.00 | 0.00 | 0.00 | 72 | 1009.2 |
| 20260502003020 | 48 | 220 | 4.0 | 8.0 | 0.00 | 0.00 | 0.00 | 68 | 1009.2 |
| 20260502001515 | 49 | 198 | 3.0 | 8.0 | 0.00 | 0.00 | 0.00 | 63 | 1008.9 |
| 20260502000016 | 50 | 290 | 1.0 | 3.0 | 0.00 | 0.00 | 0.00 | 59 | 1008.6 |
| 20260501234511 | 50 | 236 | 0.0 | 3.0 | 0.00 | 0.00 | 0.00 | 57 | 1008.5 |
| 20260501233011 | 50 | 246 | 1.0 | 7.0 | 0.00 | 0.00 | 0.00 | 55 | 1008.3 |
| 20260501231504 | 50 | 302 | 2.0 | 4.0 | 0.00 | 0.00 | 0.00 | 55 | 1008.4 |
| 20260501230004 | 50 | 177 | 2.0 | 4.0 | 0.00 | 0.00 | 0.00 | 56 | 1008.4 |
| 20260501224502 | 51 | 216 | 2.0 | 10.0 | 0.00 | 0.00 | 0.00 | 55 | 1008.5 |
| 20260501223002 | 52 | 196 | 3.0 | 9.0 | 0.00 | 0.00 | 0.00 | 50 | 1008.3 |
| 20260501221611 | 52 | 232 | 3.0 | 6.0 | 0.00 | 0.00 | 0.00 | 48 | 1008.3 |
| 20260501220058 | 52 | 214 | 5.0 | 8.0 | 0.00 | 0.00 | 0.00 | 48 | 1008.3 |
| 20260501214557 | 53 | 209 | 1.0 | 5.0 | 0.00 | 0.00 | 0.00 | 47 | 1008.1 |
| 20260501213105 | 53 | 265 | 4.0 | 10.0 | 0.00 | 0.00 | 0.00 | 46 | 1008.2 |
| 20260501211607 | 53 | 294 | 2.0 | 8.0 | 0.00 | 0.00 | 0.00 | 45 | 1008.1 |
| 20260501210052 | 53 | 287 | 1.0 | 12.0 | 0.00 | 0.00 | 0.00 | 45 | 1008.0 |
| 20260501204552 | 53 | 247 | 6.0 | 12.0 | 0.00 | 0.00 | 0.00 | 45 | 1008.0 |
| 20260501203051 | 53 | 355 | 1.0 | 7.0 | 0.00 | 0.00 | 0.00 | 45 | 1008.0 |